CW2718 Weather Reports


time (UTC)temp
C
wind
direction
speed
KPH
gust
KPH
rain 1hr
cm
rain 24hr
cm
rain mn
cm
humidity
%
barometer
mb
20260507123117 10 257 0.0 0.0 0.00 1.52 0.89 92 1010.6
20260507122117 9 257 0.0 0.0 0.00 1.52 0.89 93 1010.4
20260507121116 9 257 0.0 0.0 0.00 1.52 0.89 93 1010.3
20260507120117 9 257 0.0 0.0 0.00 1.52 0.89 93 1010.5
20260507115117 9 248 0.0 0.0 0.00 1.52 0.89 93 1010.5
20260507113318 9 248 0.0 1.6 0.00 1.52 0.89 93 1008.7
20260507013141 18 258 0.0 0.0 0.00 0.61 0.61 85 1007.2
20260507012142 18 271 0.0 0.0 0.00 0.61 0.61 84 1007.1
20260507010140 18 190 0.0 9.7 0.00 0.61 0.61 83 1006.7
20260507005141 18 190 0.0 0.0 0.00 0.61 0.61 83 1006.7
20260507003141 18 190 0.0 1.6 0.00 0.61 0.61 82 1006.2
20260507002140 18 190 0.0 1.6 0.00 0.61 0.61 82 1006.1
20260507001141 19 194 0.0 0.0 0.00 0.61 0.61 81 1006.1
20260507000141 19 175 0.0 0.0 0.00 0.61 0.61 81 1006.1
20260506235142 19 189 0.0 0.0 0.00 0.61 0.61 80 1006.0
20260506234141 19 189 0.0 0.0 0.00 0.61 0.61 80 1006.0
20260506233141 19 180 0.0 4.8 0.00 0.61 0.61 79 1005.9
20260506232140 20 196 3.2 4.8 0.00 0.61 0.61 79 1005.8
20260506231141 20 221 0.0 6.4 0.00 0.61 0.61 78 1005.9
20260506230141 20 195 0.0 11.3 0.00 0.61 0.61 77 1006.0
20260506225140 20 281 0.0 1.6 0.00 0.61 0.61 77 1005.7
20260506224140 20 188 0.0 9.7 0.00 0.61 0.61 77 1005.7
20260506223140 20 184 0.0 14.5 0.00 0.61 0.61 78 1005.7
20260506222140 20 190 0.0 4.8 0.00 0.61 0.61 79 1005.3
20260506221140 20 223 0.0 9.7 0.00 0.61 0.61 79 1005.7
20260506220141 20 190 0.0 14.5 0.00 0.61 0.61 79 1005.7
20260506215140 20 220 9.7 14.5 0.00 0.61 0.61 79 1005.6
20260506214140 19 225 0.0 9.7 0.00 0.61 0.61 80 1005.5
20260506213140 19 261 4.8 16.1 0.00 0.61 0.61 81 1005.3
20260506212140 19 198 4.8 6.4 0.00 0.61 0.61 82 1005.2
20260506211140 18 261 0.0 3.2 0.00 0.61 0.61 82 1005.3
20260506210140 18 207 0.0 8.0 0.00 0.61 0.61 82 1005.4
20260506205140 18 171 1.6 17.7 0.00 0.61 0.61 81 1005.3
20260506204140 18 190 0.0 11.3 0.00 0.61 0.61 82 1005.3
20260506202140 18 191 0.0 16.1 0.00 0.61 0.61 84 1005.2
20260506201140 18 169 0.0 11.3 0.00 0.61 0.61 85 1005.2
20260506200140 18 219 4.8 22.5 0.00 0.61 0.61 86 1005.4
20260506195141 17 205 4.8 16.1 0.00 0.61 0.61 88 1005.4
20260506194141 17 202 0.0 8.0 0.00 0.61 0.61 89 1005.5
20260506193141 17 244 0.0 9.7 0.00 0.61 0.61 89 1005.6
20260506192140 16 227 9.7 9.7 0.00 0.61 0.61 90 1005.7
20260506191140 16 179 4.8 8.0 0.00 0.61 0.61 90 1005.9
20260506184140 16 200 0.0 27.4 0.00 0.61 0.61 89 1006.2
20260506183140 16 194 0.0 14.5 0.00 0.61 0.61 89 1006.2
20260506182140 16 199 3.2 22.5 0.00 0.61 0.61 89 1006.1
20260506181140 16 222 0.0 20.9 0.00 0.61 0.61 89 1006.2
20260506180141 16 196 0.0 22.5 0.00 0.61 0.61 89 1006.2
20260506175140 16 197 0.0 29.0 0.00 0.61 0.61 90 1006.3
20260506174141 16 219 11.3 19.3 0.00 0.61 0.61 90 1006.4
20260506173140 16 184 0.0 19.3 0.03 0.61 0.61 90 1006.2
20260506172140 16 160 6.4 16.1 0.03 0.61 0.61 90 1006.5
20260506171140 16 240 3.2 22.5 0.05 0.61 0.61 90 1006.6
20260506165140 16 196 9.7 14.5 0.13 0.61 0.61 91 1006.4
20260506163140 16 148 8.0 11.3 0.33 0.58 0.58 92 1006.4
20260506162140 16 193 0.0 6.4 0.41 0.58 0.58 91 1006.7
20260506161140 16 153 0.0 9.7 0.41 0.56 0.56 90 1007.2
20260506160139 16 171 0.0 16.1 0.43 0.53 0.53 89 1007.5
20260506155139 16 167 0.0 14.5 0.38 0.48 0.48 89 1007.7
20260506154139 16 181 0.0 20.9 0.28 0.33 0.33 88 1007.8
20260506153140 16 175 0.0 11.3 0.23 0.25 0.25 88 1007.7
20260506151139 17 181 0.0 6.4 0.15 0.15 0.15 87 1007.8
20260506145139 17 177 0.0 8.0 0.10 0.10 0.10 83 1007.5
20260506144139 17 178 0.0 12.9 0.05 0.05 0.05 81 1007.7
20260506143139 18 188 0.0 14.5 0.03 0.03 0.03 78 1007.7
20260506142140 18 210 0.0 8.0 0.00 0.00 0.00 76 1007.8
20260506141139 19 200 0.0 14.5 0.00 0.00 0.00 74 1007.8
20260506140139 19 157 0.0 17.7 0.00 0.00 0.00 71 1007.6
20260506134140 18 196 1.6 20.9 0.00 0.00 0.00 74 1007.6
20260506132139 18 189 0.0 22.5 0.00 0.00 0.00 74 1007.8
20260506131139 18 192 0.0 20.9 0.00 0.00 0.00 73 1007.8
20260506125139 18 146 0.0 20.9 0.00 0.00 0.00 74 1007.9
20260506124139 18 207 0.0 16.1 0.00 0.00 0.00 75 1007.9